Preview of NWS' New Version of Forecast
This preview is not operational and should not be used for support decisions.

Regional Weather Roundup (RWR)

Issued by Philadelphia/Mt Holly (PHI)

                            
000
ASUS41 KPHI 171012
RWRPHI

REGIONAL WEATHER ROUNDUP
NATIONAL WEATHER SERVICE MOUNT HOLLY NJ
600 AM EDT TUE SEP 17 2019

NOTE:  "FAIR" INDICATES FEW OR NO CLOUDS BELOW 12,000 FEET WITH NO
SIGNIFICANT WEATHER AND/OR OBSTRUCTIONS TO VISIBILITY.

 * = STATION DOES NOT REPORT PRECIPITATION (E.G. RAIN, SNOW, ETC.) 
        OR FOG.

NJZ015>026-171100-
SOUTHERN NEW JERSEY
  
CITY           SKY/WX    TMP DP  RH WIND       PRES   REMARKS
POMONA         CLOUDY    68  58  70 NE7       30.06R                  
WILDWOOD*      CLOUDY    70  62  76 E10       30.05R                  
MILLVILLE      MOCLDY   N/A N/A N/A NE10      30.05R                  
WRIGHTSTOWN    MOCLDY    64  56  76 NE7       30.08                   
MOUNT HOLLY    CLOUDY    67  57  70 NE5       30.08R                  
TRENTON        MOCLDY    65  54  67 NE10      30.08R                  

$$
NJZ001>014-171100-
NORTHERN NEW JERSEY
  
CITY           SKY/WX    TMP DP  RH WIND       PRES   REMARKS
SUSSEX         FAIR      50  49  96 CALM      30.14R                  
ANDOVER*         N/A     55  54  96 NE6       30.13R                  
MORRISTOWN     FAIR      55  55 100 CALM      30.11S                  
NEWARK         FAIR      62  53  72 N12       30.10R                  
TETERBORO      FAIR      61  52  72 N5        30.10R                  
CALDWELL       FAIR      59  55  87 NE3       30.12R                  
SOMERVILLE     MOCLDY    60  55  83 CALM      30.10R                  
ALLAIRE*       FAIR      64  54  69 NE6       30.10R                  
TOMS RIVER*    FAIR      62  62 100 NE5       30.09R                  

$$
PAZ043-044-047-054-055-060>062-066>071-171100-
EASTERN PENNSYLVANIA
  
CITY           SKY/WX    TMP DP  RH WIND       PRES   REMARKS
PHILADELPHIA   CLOUDY    69  56  62 NE12      30.07R                  
NORTH PHILA    CLOUDY    70  53  54 E10       30.09R                  
BLUE BELL*     CLOUDY    65  63  93 NE5       30.09R                  
DOYLESTOWN     CLOUDY    65  58  78 NE6       30.10R                  
QUAKERTOWN*    CLOUDY    63  59  88 VRB5      30.11R                  
PERKASIE*      CLOUDY    63  61  94 NE7       30.12R                  
POTTSTOWN      CLOUDY    62  60  93 NE6       30.11R                  
LANCASTER      FAIR      66  55  67 NE10      30.08R                  
COATESVILLE    FAIR      64  59  82 NE6       30.10R                  
WEST CHESTER   CLOUDY    66  61  82 NE5       30.09R                  
READING        NOT AVBL                                               
ALLENTOWN      FAIR      59  51  75 E3        30.11R                  
QN CITY/ALNTWN FAIR      59  55  88 NE5       30.13R                  
MOUNT POCONO   MOCLDY    50  47  89 NE7       30.14R                  
HAZLETON       FAIR      46  45  93 CALM      30.17R                  
LEHIGHTON      FAIR      48  48 100 CALM      30.15R FOG              
WILKES BARRE   FAIR      52  48  86 E6        30.15R                  

$$
DEZALL-MDZ008-012-015-019-020-171100-
DELAWARE AND EASTERN MARYLAND
  
CITY           SKY/WX    TMP DP  RH WIND       PRES   REMARKS
WILMINGTON     CLOUDY    71  65  81 NE12      30.07R                  
CHESWOLD       CLOUDY    68  66  94 NE8       30.05R                  
GEORGETOWN     CLOUDY    72  69  90 E8        30.04R                  
EASTON         PTCLDY    70  66  88 NE5       30.05S                  
STEVENSVILLE   CLOUDY    70 N/A N/A E3        30.03R                  
PATUXENT       MOCLDY    74  71  91 E6        30.00                   
OCEAN CITY     LGT RAIN  73  68  84 NE8       30.02R                  
WALLOPS ISLAND FAIR      71  69  93 NE6       30.00R                  
CAMBRIDGE      CLOUDY    72  64  78 E7        30.02R                  
SALISBURY      CLOUDY    72  68  87 N8        30.02R                  

$$
PAZ001-021-NYZ056-072-MDZ011-DCZ001-171100-
OTHER NEARBY LOCATIONS
  
CITY           SKY/WX    TMP DP  RH WIND       PRES   REMARKS
HARRISBURG     MOCLDY    67  56  67 VRB3      30.08R                  
STATE COLLEGE  PTCLDY    57  57 100 NE7       30.14R                  
WILLIAMSPORT   FAIR      56  51  84 CALM      30.14R                  
BINGHAMTON     FAIR      49  44  83 NE3       30.16R                  
NEW YORK CITY  FAIR      63  47  55 VRB7      30.13R                  
BALTIMORE      CLOUDY    71  66  84 NE12      30.04R                  
WASHINGTON DC  MOCLDY    74  66  76 NE14      30.03R                  

$$